Flag for Germany Weather past 2 weeks in Erftstadt, North Rhine-Westphalia, Germany

Now
30 °F

Partly cloudy.


Feels Like: 19 °F
Forecast: 25 / 39 °F
Wind: 15 mph from Southwest

Location: Noervenich

Current Time: Dec 29, 2014 at 6:23:23 AM

Latest Report: Dec 29, 2014 at 5:20 AM


Visibility: N/A

Pressure: 30.42 "Hg

Humidity: 93%

Dew point: 28 °F

Location of ErftstadtLocation

Historic Weather in Erftstadt — Graph

°F

Erftstadt temperature yesterday

Maximum temperature yesterday: 30 °F (at 12:20 AM)
Minimum temperature yesterday: 23 °F (at 7:20 AM)
Average temperature yesterday: 26 °F

Past Weeks' High & Low Weather Summary

 TemperatureHumidityPressure
High55 °F (Dec 18, 3:20 PM)100% (Dec 14, 5:20 AM)30.54 "Hg (Dec 14, 5:20 AM)
Low23 °F (Dec 28, 7:20 AM)64% (Dec 28, 2:20 PM)29.36 "Hg (Dec 27, 1:20 PM)
Average42 °F84%30.04 "Hg
* Reported Dec 14 5:20 AM — Dec 29 5:20 AM, Erftstadt, Weather by CustomWeather, © 2014

Note: Actual official high and low records may vary slightly from our data, if they occured in-between our weather recording intervals... More about our weather records

Advertising

Erftstadt weather history for previous 24 hours

 ConditionsComfort  
Time TempWeatherWind HumidityBarometerVisibility
5:20 AM
Dec 29
30 °FPartly cloudy.15 mph93%30.42 "HgN/A
4:20 AM28 °FSnow. Ice fog.12 mph93%30.45 "Hg2 mi
3:20 AM28 °FSnow. Ice fog.1 mph86%30.48 "Hg2 mi
2:20 AM27 °FPassing clouds.1 mph93%30.48 "HgN/A
1:20 AM27 °FPassing clouds.2 mph86%30.48 "HgN/A
12:20 AM25 °FPassing clouds.5 mph86%30.51 "HgN/A
11:20 PM
Dec 28
27 °FPassing clouds.5 mph86%30.54 "HgN/A
10:20 PM27 °FPassing clouds.5 mph86%30.54 "HgN/A
9:20 PM25 °FPassing clouds.5 mph86%30.51 "HgN/A
8:20 PM25 °FPassing clouds.5 mph86%30.51 "HgN/A
7:20 PM23 °FPassing clouds.1 mph86%30.51 "HgN/A
6:20 PM25 °FPassing clouds.2 mph80%30.45 "HgN/A
5:20 PM25 °FPassing clouds.2 mph80%30.42 "HgN/A
4:20 PM27 °FChilly.5 mph69%30.39 "HgN/A
3:20 PM28 °FChilly.7 mph64%30.36 "HgN/A
2:20 PM28 °FChilly.7 mph64%30.33 "HgN/A
1:20 PM27 °FChilly.6 mph69%30.30 "HgN/A
12:20 PM27 °FChilly.6 mph69%30.30 "HgN/A
11:20 AM25 °FCold.7 mph74%30.27 "HgN/A
10:20 AM25 °FCold.6 mph74%30.21 "HgN/A
9:20 AM23 °FCold.5 mph74%30.18 "HgN/A
8:20 AM23 °FPassing clouds.8 mph74%30.09 "HgN/A
7:20 AM23 °FPassing clouds.7 mph80%30.04 "HgN/A
6:20 AM25 °FPassing clouds.7 mph74%29.98 "HgN/A
Weather by CustomWeather, © 2014

See weather overviewHow to use our weather pages